sat.trackr.live / text

‹ back to catalog

STARLINK-31583

NORAD 59369 · 2024-060X

PAYLOAD ACTIVE UNKNOWN

§ Identity

Operator
Country
US
Launch date
2024-03-31
Launch site
AFETR
Launch vehicle
Mass (kg)
RCS (m²)

Purposes: comms

External: N2YO · Heavens-Above · Gunter

§ Orbital elements

Epoch: 2026-05-25T03:37:44.434272Z

Period
94.27 min
Inclination
43.0027°
Eccentricity
0.0001279
Mean motion
15.27576894 rev/d
Perigee alt
482.2 km
Apogee alt
483.9 km
Semi-major
6,861.2 km
B*
4.2677e-5
RAAN
177.0536°
Arg perigee
257.7016°
Mean anomaly
102.3693°
Rev number
12,188

§ Raw data

STARLINK-315831 59369U 24060X   26145.15120873  .00000912  00000+0  42677-4 0  99902 59369  43.0027 177.0536 0001279 257.7016 102.3693 15.27576894121884

JSON: /api/v1/satellites/59369 · /tle

For live sub-satellite position, see the globe view (requires WebGL).

§ Visibility from observer

Set your observer location to see the next 7 days of passes ≥ 10°. The values pass through the URL so the page stays shareable.

No JS? Fill the form by hand. The geolocation button needs JavaScript.